www.pogodaiklimat.ru

Погода и климат >> Архив погоды >> Фиджи >> Вануа Мбалаву


ПОГОДА на Вануа Мбалаву

  • Прогноз погоды на Вануа Мбалаву
  • Монитор погоды на Вануа Мбалаву

АРХИВ ПОГОДЫ на Вануа Мбалаву

Время (UTC), дата Ветер
(напр.,м/с)
 
Видим.   Явления Облачность Т
(С)
Тd
(С)
f
(%)
Тe
(С)
Тes
(С)
Комфортность P
(гПа)
Po
(гПа)
Тmin
(С)
Tmax
(С)
R
(мм)
R24
(мм)
S
(см)
06 19.06 ЮВ 7 н/о н/о +26.4 +25.3 94 +38 +38 очень
душно
1016.3 1010.2
09 19.06 ЮВ 6 н/о н/о +26.9 +25.3 91 +39 +39 очень
душно
1017.5 1011.4
12 19.06 В 5 н/о н/о +26.5 +25.1 92 +38 +38 очень
душно
1017.5 1011.4 +29.5 0.5
15 19.06 В 5 н/о н/о +26.5 +24.9 91 +38 +38 очень
душно
1016.4 1010.3
18 19.06 ЮВ 5 н/о н/о +26.4 +24.6 90 +37 +37 очень
душно
1016.8 1010.7
21 19.06 ЮВ 6 н/о н/о +28.2 +24.6 81 +40 +40 очень
душно
1017.9 1011.9
00 20.06 ЮВ 7 н/о н/о +29.0 +24.9 79 +42 +42 опасность
перегрева
1016.8 1010.8 +26.1
03 20.06 ЮВ 9 н/о н/о +26.4 +23.8 86 +36 +36 очень
душно
1015.5 1009.4
06 20.06 ЮВ 8 н/о н/о +26.1 +23.0 83 +35 +35 очень
душно
1016.1 1010.0
09 20.06 ЮВ 9 н/о н/о +25.8 +23.0 85 +34 +34 очень
душно
1017.4 1011.3
12 20.06 В 8 н/о н/о +26.3 +23.0 82 +35 +35 очень
душно
1017.3 1011.2 +29.8 1
15 20.06 В 7 н/о н/о +26.1 +22.6 81 +34 +34 очень
душно
1016.2 1010.1
18 20.06 ЮВ 8 н/о н/о +26.0 +22.4 81 +34 +34 очень
душно
1016.3 1010.2
21 20.06 ЮВ 8 н/о н/о +27.6 +22.9 76 +37 +37 очень
душно
1017.7 1011.6
00 21.06 В 7 н/о н/о +28.6 +22.9 71 +38 +38 очень
душно
1016.4 1010.4 +24.7
03 21.06 ЮВ 7 н/о н/о +27.8 +22.6 73 +37 +37 очень
душно
1015.2 1009.2
06 21.06 В 5 н/о н/о +26.2 +22.4 80 +34 +34 очень
душно
1016.3 1010.2
09 21.06 ЮВ 7 н/о н/о +26.0 +22.9 83 +35 +35 очень
душно
1017.4 1011.3
12 21.06 В 6 н/о н/о +26.0 +22.3 80 +34 +34 очень
душно
1017.1 1011.0 +29.5
15 21.06 ЮВ 7 н/о н/о +24.2 +22.6 91 +32 +32 очень
душно
1016.4 1010.3
18 21.06 СВ 5 н/о н/о +23.1 +21.8 92 +31 +31 очень
душно
1016.3 1010.2 4
21 21.06 В 8 н/о н/о +27.3 +22.3 74 +36 +36 очень
душно
1017.5 1011.4
00 22.06 В 8 н/о н/о +28.1 +22.6 72 +37 +37 очень
душно
1016.0 1010.0 +22.5 0.5
03 22.06 В 7 н/о н/о +27.4 +21.8 72 +35 +35 очень
душно
1014.9 1008.9
06 22.06 В 6 н/о н/о +25.8 +21.6 78 +33 +33 очень
душно
1015.8 1009.7
09 22.06 В 6 н/о н/о +25.9 +21.3 76 +33 +33 очень
душно
1017.2 1011.1
12 22.06 В 6 н/о н/о +26.0 +21.2 75 +33 +33 очень
душно
1016.9 1010.8 +29.4
15 22.06 В 6 н/о н/о +26.0 +21.9 78 +33 +33 очень
душно
1016.5 1010.4
18 22.06 В 7 н/о н/о +26.0 +22.4 81 +34 +34 очень
душно
1016.9 1010.8
21 22.06 В 7 н/о н/о +28.5 +23.2 73 +38 +38 очень
душно
1018.3 1012.3
00 23.06 В 7 н/о н/о +29.4 +23.8 72 +40 +40 очень
душно
1017.2 1011.2 +25.6
03 23.06 В 7 н/о н/о +28.1 +23.6 77 +39 +39 очень
душно
1016.3 1010.3
06 23.06 В 7 н/о н/о +26.7 +23.3 82 +36 +36 очень
душно
1017.8 1011.7
09 23.06 В 6 н/о н/о +26.6 +23.6 84 +36 +36 очень
душно
1019.0 1012.9
12 23.06 В 5 н/о н/о +26.1 +24.1 89 +36 +36 очень
душно
1018.6 1012.5 +29.7
15 23.06 В 5 н/о н/о +26.2 +24.4 90 +37 +37 очень
душно
1017.3 1011.2
18 23.06 В 5 н/о н/о +26.1 +24.7 92 +37 +37 очень
душно
1018.0 1011.9
21 23.06 В 6 н/о н/о +27.8 +25.5 87 +41 +41 опасность
перегрева
1019.2 1013.1
00 24.06 В 7 н/о н/о +27.8 +25.7 88 +41 +41 опасность
перегрева
1018.4 1012.3 +25.7 1
03 24.06 В 7 н/о н/о +27.6 +25.2 87 +40 +40 очень
душно
1017.4 1011.3
06 24.06 В 6 н/о н/о +27.0 +24.4 86 +38 +38 очень
душно
1019.0 1012.9 1
09 24.06 В 6 н/о н/о +26.8 +24.6 88 +38 +38 очень
душно
1021.0 1014.9
12 24.06 В 5 н/о н/о +26.8 +24.9 89 +38 +38 очень
душно
1020.4 1014.3 +29.8
15 24.06 ЮВ 6 н/о н/о +26.7 +24.5 88 +38 +38 очень
душно
1019.8 1013.7
18 24.06 В 8 н/о н/о +26.7 +24.1 86 +37 +37 очень
душно
1019.9 1013.8
21 24.06 В 9 н/о н/о +27.7 +24.6 83 +39 +39 очень
душно
1020.5 1014.4

 

Местоположение метеостанции Вануа Мбалаву (Фиджи): широта -17.25 долгота 178.92 высота над уровнем моря 5 м.

В архиве по умолчанию представлена погода на Вануа Мбалаву за последнюю неделю. Архивные данные за месяц целиком и за предыдущие месяцы, начиная с января 2011 года, Вы можете получить, выбрав интересующий диапазон дат из раскрывающегося списка и нажав кнопку "Ввод!".


*Определитесь, кто Вы:
робот инопланетянин человек

Внимание! Время в таблицах - всемирное. Для получения местного времени необходимо прибавить поправку, которая равна 12 ч.

Смотрите также архив погоды в соседних городах и на ближайших метеорологических станциях:

Погода в Нэбаууолу (Фиджи) (36 км)
Погода в Ракираки (Фиджи) (76 км)
Погода в Наусори (Фиджи) (97 км)
Погода в Ламбасе (Фиджи) (106 км)
Погода в Сигатоке (Фиджи) (114 км)
Погода в Ясава-и-Рара (Фиджи) (155 км)
Погода в Нанди (Фиджи) (166 км)
Погода на Вануа Леву (Фиджи) (168 км)
Погода на Острове Вива (Фиджи) (215 км)
Погода в Вьюнисея (Фиджи) (216 км)

Пояснения к столбцам:

Ветер - указаны скорость ветра в м/с - средняя за 10 мин, порывы в срок и между сроками (в фигурных скобках) и направление, откуда дует ветер: С - северный, СВ - северо-восточный, В - восточный, ЮВ - юго-восточный, Ю - южный, ЮЗ - юго-западный, З - западный, СЗ - северо-западный.
Видимость - горизонтальная дальность видимости в метрах или километрах. При видимости от 1 до 10 км при отсутствии осадков обычно наблюдается дымка, при ухудшении видимости до 1 км и менее - туман. В сухую погоду видимость может ухудшаться дымом, пылью или мглою.
Явления - указаны атмосферные явления, наблюдавшиеся в срок или в последний час перед сроком; фигурными скобками обозначены явления, наблюдавшиеся между сроками (за 1-3 часа до срока); квадратными скобками обозначены град или гололедные отложения с указанием их диаметра в мм.
Облачность - указаны через наклонную черту общая и нижняя облачность в баллах и высота нижней границы облаков в метрах; квадратными скобками обозначены формы облаков: Ci - перистые, Cs - перисто-слоистые, Cc - перисто-кучевые, Ac - высококучевые, As - высокослоистые, Sc - слоисто-кучевые, Ns - слоисто-дождевые, Cu - кучевые, Cb - кучево-дождевые. Подробнее классификацию облаков см. в Атласе облаков (PDF).
T - Температура воздуха - температура, измеренная на высоте 2 м над землей.
Td - Температура точки росы - температура, при понижении до которой содержащийся в воздухе водяной пар достигнет насыщения.
f - Относительная влажность воздуха - влажноcть воздуха, измеренная на высоте 2 м над землей.
Te - Эффективная температура - температура, которую ощущает одетый по сезону человек в тени. Характеристика душности погоды. При расчете учитывается влияние влажности воздуха и скорости ветра на теплоощущения человека.
Tes - Эффективная температура на солнце - температура, которую ощущает человек, с поправкой на солнечный нагрев. Характеристика знойности погоды. Зависит от высоты солнца над горизонтом, облачности и скорости ветра. Ночью, в пасмурную погоду, а также при ветре 12 м/с и более поправка равна нулю.
P - Атмосферное давление - приведенное к уровню моря атмосферное давление.
Po - Атмосферное давление - измеренное на уровне метеостанции атмосферное давление.
Tmin - Минимальная температура - минимум температуры воздуха на высоте 2 м над землей.
Tmax - Максимальная температура - максимум температуры воздуха на высоте 2 м над землей.
R - Количество осадков - Количество выпавших осадков за период времени, мм. При наведении курсора мыши на число - период времени, за который выпало указанное количество осадков.
R24 - Количество осадков - Количество выпавших осадков за 24 часа, мм.
S - Снежный покров - Высота снежного покрова, см. При наведении курсора мыши на число - состояние снежного покрова и степень покрытия местности в баллах.